Regional Weather Roundup
Issued by NWS Columbia, SC

Home | Current Version | Previous Version | Text Only | Print | Product List | Glossary On
Versions: 1 2 3 4 5 6 7 8 9 10 11 12 13 14 15 16 17 18 19 20 21 22 23 24 25 26 27 28 29 30 31 32 33 34 35 36 37 38 39 40 41 42 43 44 45 46 47 48 49 50
000
ASUS42 KCAE 210810
RWRCAE
REGIONAL WEATHER ROUNDUP
NATIONAL WEATHER SERVICE COLUMBIA SC
300 AM EST TUE NOV 21 2017

NOTE: "FAIR" INDICATES FEW OR NO CLOUDS BELOW 12,000 FEET WITH NO
SIGNIFICANT WEATHER AND/OR OBSTRUCTIONS TO VISIBILITY.

NOT ALL STATIONS ARE QUALITY CONTROLLED BY THE NATIONAL
WEATHER SERVICE. USE DATA WITH CAUTION...ESPECIALLY
DEWPOINT OBSERVATIONS.

SCZ001>056-GAZ040-063>065-077-210900-
...UPSTATE SOUTH CAROLINA...

CITY           SKY/WX    TMP DP  RH WIND       PRES   REMARKS
ANDERSON       CLOUDY    43  37  79 CALM      30.20F
LIBERTY        CLOUDY    34  34 100 CALM      30.20F
SPARTANBURG    CLOUDY    37  34  87 CALM      30.21F
CLEMSON        CLOUDY    42  40  92 N3        30.21F
GREENVILLE     CLOUDY    42  33  70 CALM      30.21F
GREENWOOD      PTCLDY    37  35  92 CALM      30.23S
GREER          CLOUDY    39  33  79 CALM      30.21F
ROCK HILL      MOCLDY    37  31  78 CALM      30.23S
CHESTER        CLOUDY    37  32  81 CALM      30.23S
LAURENS        MOSUNNY   43  34  70 S5        30.21F


...CENTRAL SOUTH CAROLINA...

CITY           SKY/WX    TMP DP  RH WIND       PRES   REMARKS
COLUMBIA APT   PTCLDY    35  33  92 S5        30.22S WCI  31
COLUMBIA OWENS CLOUDY    38  35  89 CALM      30.24S
MCENTIRE ANGB  CLOUDY    33  31  94 CALM      30.22F
ORANGEBURG     CLEAR     38  35  89 CALM      30.22S
SUMTER SHAW    CLOUDY    33  30  88 NE3       30.21S
NEWBERRY       MOSUNNY   37  36  93 CALM      30.25S
AIKEN          FAIR      36  32  87 CALM      30.24S
BARNWELL         N/A     41  37  87 CALM      30.21S
MANNING        FAIR      34  34 100 MISG      30.22S
CAMDEN         CLOUDY    30  28  93 CALM      30.24S
LANCASTER      PTSUNNY   32  32 100 CALM      30.24S
WINNSBORO      MOSUNNY   37  34  87 CALM      30.22S


...EASTERN AND COASTAL SOUTH CAROLINA...

CITY           SKY/WX    TMP DP  RH WIND       PRES   REMARKS
MYRTLE BEACH   CLEAR     39  38  96 NW3       30.23F
N MYRTLE BCH   CLEAR     39  38  96 CALM      30.22F
CONWAY         FAIR      32  32 100 CALM      30.23F
MARION         FAIR      32  30  93 CALM      30.25S
HARTSVILLE     FAIR      34  32  93 CALM      30.23S
FLORENCE       CLOUDY    35  32  88 N3        30.25S
DARLINGTON     CLOUDY    29  27  92 CALM      30.25F
CHARLESTON APT PTCLDY    43  41  93 N5        30.19S
MOUNT PLEASANT FAIR      45  43  93 CALM      30.19S
WALTERBORO     MOSUNNY   41  37  87 CALM      30.21R
BEAUFORT       MOCLDY    50  47  89 N6        30.18F


...EASTERN GEORGIA...

CITY           SKY/WX    TMP DP  RH WIND       PRES   REMARKS
AUGUSTA BUSH F PTCLDY    39  37  92 CALM      30.20F
AUGUSTA DANIEL PTCLDY    47  36  65 E6        30.20F
THOMSON        CLOUDY    41  37  87 SE3       30.24F
WASHINGTON     FAIR      43  36  75 CALM      30.19F
CLAXTON        CLOUDY    53  47  81 NE6       30.16F
SYLVANIA       CLOUDY    50  44  80 E5        30.19F
STATESBORO     CLOUDY    49  40  72 CALM      30.18S
SAVANNAH       CLOUDY    53  48  83 N3        30.16F


...SOUTHERN NORTH CAROLINA...

CITY           SKY/WX    TMP DP  RH WIND       PRES   REMARKS
CHARLOTTE      CLOUDY    40  30  67 CALM      30.23S
MONROE         PTCLDY    37  28  70 CALM      30.22S
WADESBORO      SUNNY     29  26  88 CALM      30.25S
RUTHERFORDTON  PTCLDY    32  31  98 CALM      30.22S
ASHEVILLE      CLOUDY    34  28  79 SE3       30.18F

$$



USA.gov is the U.S. government's official web portal to all federal, state and local government web resources and services.